This demonstration page uses our WeatherBlox Daily Observations layout. Learn more.

Left ArrowRight Arrow

53.62937, 11.41316

Hourly Observations for July 17, 2016

Temp ( °F °C ) Dew Point ( °F °C ) Humidity (%) Winds ( mph kmh ) Pressure ( in mb ) Visibility ( mi km ) Precip ( " mm )
12:20 am 00:20 Cloudy with Light Rain 64 18 63 17 94 94 W 9 15 30.12 1020 4 6 N/A
12:50 am 00:50 Mostly Cloudy 64 18 63 17 94 94 W 6 9 30.12 1020 5 8 N/A
1:20 am 01:20 Cloudy 63 17 63 17 100 100 W 6 9 30.12 1020 4 7 N/A
1:50 am 01:50 Mostly Cloudy 63 17 61 16 94 94 W 6 9 30.12 1020 30 48 N/A
6:20 am 06:20 Mostly Cloudy with Fog 55 13 55 13 100 100 VRB 2 4 30.09 1019 0 0 N/A
6:50 am 06:50 Mostly Cloudy with Mist and Fog 57 14 57 14 100 100 VRB 1 2 30.09 1019 3 4 N/A
7:50 am 07:50 Cloudy 63 17 61 16 94 94 VRB 2 4 30.09 1019 30 48 N/A
8:20 am 08:20 Cloudy 63 17 61 16 94 94 SSW 2 4 30.09 1019 5 8 N/A
8:50 am 08:50 Cloudy 64 18 61 16 88 88 VRB 1 2 30.09 1019 5 8 N/A
9:20 am 09:20 Mostly Cloudy 63 17 61 16 94 94 NNE 3 6 30.09 1019 6 9 N/A
9:50 am 09:50 Cloudy 63 17 61 16 94 94 NE 3 6 30.09 1019 6 9 N/A
10:20 am 10:20 Cloudy with Light Rain 63 17 61 16 94 94 NNE 3 6 30.09 1019 5 8 N/A
10:50 am 10:50 Cloudy with Light Rain 63 17 61 16 94 94 N 5 7 30.09 1019 30 48 N/A
11:20 am 11:20 Cloudy 63 17 61 16 94 94 VRB 2 4 30.09 1019 30 48 N/A
11:50 am 11:50 Cloudy 64 18 61 16 88 88 NNW 3 6 30.09 1019 30 48 N/A
12:20 pm 12:20 Mostly Cloudy 66 19 61 16 83 83 W 5 7 30.09 1019 30 48 N/A
12:50 pm 12:50 Mostly Cloudy 68 20 61 16 78 78 W 7 11 30.09 1019 30 48 N/A
1:20 pm 13:20 Partly Cloudy 72 22 61 16 69 69 W 8 13 30.06 1018 30 48 N/A
1:50 pm 13:50 Partly Cloudy 73 23 55 13 53 53 WSW 14 22 30.06 1018 30 48 N/A
2:20 pm 14:20 Partly Cloudy 75 24 57 14 54 54 WNW 9 15 30.06 1018 30 48 N/A
2:50 pm 14:50 Mostly Cloudy 72 22 57 14 61 61 WNW 9 15 30.06 1018 30 48 N/A
3:20 pm 15:20 Mostly Cloudy 70 21 55 13 60 60 WNW 9 15 30.06 1018 30 48 N/A
3:50 pm 15:50 Mostly Cloudy 70 21 57 14 64 64 WNW 6 9 30.06 1018 30 48 N/A
4:20 pm 16:20 Mostly Cloudy 70 21 57 14 64 64 WNW 7 11 30.06 1018 30 48 N/A
4:50 pm 16:50 Mostly Cloudy 70 21 57 14 64 64 W 9 15 30.06 1018 30 48 N/A
5:20 pm 17:20 Mostly Sunny 72 22 59 15 65 65 W 10 17 30.06 1018 7 11 N/A
5:50 pm 17:50 Mostly Cloudy 70 21 57 14 64 64 WNW 12 19 30.06 1018 30 48 N/A
6:20 pm 18:20 Mostly Cloudy 68 20 59 15 73 73 N 9 15 30.06 1018 30 48 N/A
6:50 pm 18:50 Cloudy 66 19 57 14 73 73 N 7 11 30.06 1018 30 48 N/A

Powered by AerisWeather